Location: Azul
(36.7830°S, 59.8500°W)
Time: 08:43:00
(UTC-03:00)

NOAA 19 - Pass Details

Date: 25 October 2021
Orbit: 840 x 861 km, 99.2° (Epoch: 07 December)

Event Time Altitude Azimuth Distance (km) Brightness Sun altitude
Rises 21:25:29 0° 178° (S) 3,473 8.9 -22.3°
Reaches altitude 10° 21:28:07 10° 188° (S) 2,529 8.2 -22.7°
Maximum altitude 21:32:57 31° 247° (WSW) 1,492 7.1 -23.5°
Drops below altitude 10° 21:37:45 10° 307° (NW) 2,502 7.8 -24.2°
Sets 21:40:22 0° 317° (NW) 3,429 8.4 -24.6°
